This is the latest recevied weather packets stored in our database for station/object AA1FF. If no packets are shown the sender has not sent any weather packets the latest 10 day(s).
| Time | Temp. | Humidity | Pressure | Rain* | Wind** | Luminosity | Snow |
|---|---|---|---|---|---|---|---|
| 1777676624 | 15.56° C | 33% | 1010 hPa | 0 mm | - | 32 W/m² | - |
| 1777676324 | 15.56° C | 33% | 1010 hPa | 0 mm | - | 35 W/m² | - |
| 1777676024 | 16.11° C | 33% | 1010 hPa | 0 mm | - | 37 W/m² | - |
| 1777675724 | 16.11° C | 33% | 1009 hPa | 0 mm | - | 41 W/m² | - |
| 1777675424 | 16.67° C | 32% | 1009 hPa | 0 mm | - | 94 W/m² | - |
| 1777675124 | 16.67° C | 31% | 1009 hPa | 0 mm | - | 108 W/m² | - |
| 1777674824 | 16.67° C | 31% | 1009 hPa | 0 mm | - | 121 W/m² | - |
| 1777674524 | 16.67° C | 32% | 1009 hPa | 0 mm | - | 135 W/m² | - |
| 1777674225 | 16.67° C | 32% | 1009 hPa | 0 mm | - | 149 W/m² | - |
| 1777673924 | 16.67° C | 31% | 1009 hPa | 0 mm | - | 165 W/m² | - |
| 1777673624 | 16.67° C | 31% | 1009 hPa | 0 mm | - | 179 W/m² | - |
| 1777673323 | 16.67° C | 32% | 1009 hPa | 0 mm | - | 195 W/m² | - |
| 1777673024 | 17.22° C | 31% | 1009 hPa | 0 mm | - | 211 W/m² | - |
| 1777672723 | 17.78° C | 31% | 1009 hPa | 0 mm | - | 228 W/m² | - |
| 1777672423 | 17.78° C | 30% | 1009 hPa | 0 mm | - | 242 W/m² | - |
| 1777672124 | 16.67° C | 32% | 1009 hPa | 0 mm | - | 258 W/m² | - |
| 1777671824 | 16.67° C | 30% | 1009 hPa | 0 mm | - | 276 W/m² | - |
| 1777671524 | 17.22° C | 31% | 1009 hPa | 0 mm | - | 293 W/m² | - |
| 1777671223 | 17.22° C | 30% | 1009 hPa | 0 mm | - | 310 W/m² | - |
| 1777670924 | 17.22° C | 32% | 1009 hPa | 0 mm | - | 327 W/m² | - |
| 1777670623 | 17.22° C | 31% | 1009 hPa | 0 mm | - | 344 W/m² | - |
| 1777670323 | 16.67° C | 31% | 1009 hPa | 0 mm | - | 362 W/m² | - |
| 1777670025 | 16.67° C | 31% | 1009 hPa | 0 mm | - | 380 W/m² | - |
| 1777669724 | 16.67° C | 31% | 1009 hPa | 0 mm | - | 398 W/m² | - |
| 1777669425 | 16.11° C | 31% | 1009 hPa | 0 mm | - | 415 W/m² | - |
* Rain latest hour (hover to see other rain measurements)
** Current wind speed in m/s (hover to see current wind gust speed)